STARLINK-3068 (49154 NORAD) Tracking and Keplerian Element Data

This shows tracking and keplerian element data for the satellite.

Feedback or suggestion? Click here.




ElementValue
Catalog49154
NameSTARLINK-3068
Epoch Orbit370
Epoch Day287.91667824
Epoch Year2021
RAAN40.2921
Inclination70.0012
Eccentricity0.0003899
Argument of Perigee289.3873
Mean Anonmoly179.5062
Mean Motion15.69753022
Decay Rate-0.00038221
L11 49154U 21082AA 21287.91667824 -.00038221 00000-0 -31976-3 0 9996
L22 49154 70.0012 40.2921 0003899 289.3873 179.5062 15.69753022 3702

Live tracking and technical data element details for STARLINK-3068 (NORAD 49154). STARLINK-3068 can be tracked NOW for your location showing map with azimuth and elevation plus other details from your city location.

Track the satellite on the map from your city or location and see movement details for azimuth, elevation, latitude, longitude, range, height, and movement on the map or in text.







IsCatalogInMostPopularTable: catalog: 49154, numindb: 7
Update: records affected: 1



GetName: 49154 STARLINK-3068

Hit Count: updated at: Sun, 17 Oct 2021 10:23:31 GMT